• In Romania
  • List of Countries
  • For 7 days
  • Water Temperature
  • Satellite Maps
  • Weather Map
  • Weather Widgets
  • user-avatar
    Login

    Hourly Weather Newcastle

    Today, 22 April, Sunday

    Time Temperature Precipitation Wind Pressure Humidity
    00:00 +13°C° 0 mm 4 mps 745 mmHg 91%
    01:00 +13°C° 0 mm 4 mps 745 mmHg 92%
    02:00 +12°C° 0 mm 4 mps 744 mmHg 92%
    03:00 +12°C° 0 mm 4 mps 744 mmHg 92%
    04:00 +12°C° 0 mm 4 mps 743 mmHg 93%
    05:00 +11°C° 0 mm 3 mps 743 mmHg 94%
    06:00 +11°C° 0 mm 3 mps 743 mmHg 95%
    07:00 +12°C° 0 mm 3 mps 743 mmHg 91%
    08:00 +13°C° 0 mm 4 mps 742 mmHg 86%
    09:00 +14°C° 0 mm 4 mps 742 mmHg 82%
    10:00 +14°C° 0.3 mm 4 mps 742 mmHg 81%
    11:00 +14°C° 0.3 mm 4 mps 742 mmHg 80%
    12:00 +13°C° 0.3 mm 5 mps 742 mmHg 78%
    13:00 +13°C° 0.1 mm 5 mps 742 mmHg 77%
    14:00 +13°C° 0.1 mm 6 mps 742 mmHg 76%
    15:00 +13°C° 0.1 mm 6 mps 742 mmHg 75%
    16:00 +13°C° 0 mm 6 mps 743 mmHg 75%
    17:00 +12°C° 0 mm 5 mps 743 mmHg 75%
    18:00 +12°C° 0 mm 5 mps 743 mmHg 75%
    19:00 +10°C° 0 mm 5 mps 743 mmHg 78%
    20:00 +9°C° 0 mm 5 mps 743 mmHg 81%
    21:00 +8°C° 0 mm 5 mps 744 mmHg 84%
    22:00 +7°C° 0 mm 5 mps 744 mmHg 85%
    23:00 +7°C° 0 mm 5 mps 745 mmHg 86%

    Tomorrow, 23 April, Monday

    Time Temperature Precipitation Wind Pressure Humidity
    00:00 +7°C° 0 mm 5 mps 745 mmHg 87%
    01:00 +6°C° 0 mm 5 mps 745 mmHg 87%
    02:00 +6°C° 0 mm 5 mps 745 mmHg 88%
    03:00 +6°C° 0 mm 5 mps 745 mmHg 89%
    04:00 +6°C° 0 mm 5 mps 746 mmHg 88%
    05:00 +6°C° 0 mm 5 mps 746 mmHg 87%
    06:00 +6°C° 0 mm 5 mps 747 mmHg 86%
    07:00 +7°C° 0 mm 5 mps 747 mmHg 82%
    08:00 +8°C° 0 mm 5 mps 747 mmHg 79%
    09:00 +9°C° 0 mm 5 mps 748 mmHg 75%
    10:00 +10°C° 0 mm 5 mps 748 mmHg 72%
    11:00 +12°C° 0 mm 5 mps 748 mmHg 68%
    12:00 +13°C° 0 mm 6 mps 748 mmHg 65%
    13:00 +13°C° 0 mm 6 mps 748 mmHg 68%
    14:00 +13°C° 0 mm 6 mps 748 mmHg 71%
    15:00 +11°C° 0 mm 6 mps 747 mmHg 75%
    16:00 +11°C° 0 mm 6 mps 747 mmHg 77%
    17:00 +12°C° 0 mm 5 mps 747 mmHg 79%
    18:00 +12°C° 0 mm 5 mps 747 mmHg 82%
    19:00 +12°C° 0.2 mm 5 mps 747 mmHg 84%
    20:00 +10°C° 0.2 mm 5 mps 747 mmHg 87%
    21:00 +10°C° 0.2 mm 5 mps 747 mmHg 90%
    22:00 +10°C° 0.4 mm 5 mps 746 mmHg 90%
    23:00 +10°C° 0.4 mm 5 mps 746 mmHg 91%

    Day after tomorrow, 24 April, Tuesday

    Time Temperature Precipitation Wind Pressure Humidity
    00:00 +10°C° 0.4 mm 5 mps 746 mmHg 92%
    01:00 +10°C° 0.5 mm 5 mps 746 mmHg 92%
    02:00 +10°C° 0.5 mm 5 mps 746 mmHg 93%
    03:00 +10°C° 0.5 mm 4 mps 746 mmHg 93%
    04:00 +10°C° 0.6 mm 4 mps 746 mmHg 94%
    05:00 +10°C° 0.6 mm 3 mps 746 mmHg 94%
    06:00 +10°C° 0.6 mm 3 mps 746 mmHg 94%
    07:00 +10°C° 0.3 mm 3 mps 746 mmHg 92%
    08:00 +11°C° 0.3 mm 3 mps 746 mmHg 89%
    09:00 +11°C° 0.3 mm 3 mps 746 mmHg 87%
    10:00 +12°C° 0.1 mm 3 mps 747 mmHg 83%
    11:00 +13°C° 0.1 mm 4 mps 747 mmHg 79%
    12:00 +13°C° 0.1 mm 4 mps 747 mmHg 75%
    13:00 +13°C° 0.2 mm 4 mps 746 mmHg 75%
    14:00 +13°C° 0.2 mm 4 mps 746 mmHg 74%
    15:00 +13°C° 0.2 mm 4 mps 746 mmHg 74%
    16:00 +13°C° 0.3 mm 3 mps 746 mmHg 76%
    17:00 +12°C° 0.3 mm 3 mps 745 mmHg 79%
    18:00 +12°C° 0.3 mm 3 mps 745 mmHg 81%
    19:00 +12°C° 0.4 mm 2 mps 745 mmHg 84%
    20:00 +10°C° 0.4 mm 2 mps 745 mmHg 87%
    21:00 +9°C° 0.4 mm 2 mps 745 mmHg 89%
    22:00 +9°C° 0 mm 2 mps 745 mmHg 90%
    23:00 +8°C° 0 mm 2 mps 745 mmHg 91%

    25 April, Wednesday

    Time Temperature Precipitation Wind Pressure Humidity
    00:00 +8°C° 0 mm 3 mps 745 mmHg 92%
    01:00 +7°C° 0 mm 3 mps 745 mmHg 92%
    02:00 +7°C° 0 mm 2 mps 745 mmHg 92%
    03:00 +7°C° 0 mm 2 mps 744 mmHg 92%
    04:00 +7°C° 0 mm 2 mps 745 mmHg 92%
    05:00 +7°C° 0 mm 3 mps 745 mmHg 91%
    06:00 +7°C° 0 mm 3 mps 745 mmHg 91%
    07:00 +7°C° 0.1 mm 4 mps 745 mmHg 84%
    08:00 +8°C° 0.1 mm 4 mps 745 mmHg 77%
    09:00 +9°C° 0.1 mm 5 mps 745 mmHg 71%
    10:00 +10°C° 0.2 mm 6 mps 745 mmHg 68%
    11:00 +10°C° 0.2 mm 6 mps 745 mmHg 65%
    12:00 +11°C° 0.2 mm 7 mps 745 mmHg 62%
    13:00 +11°C° 0.3 mm 7 mps 745 mmHg 63%
    14:00 +11°C° 0.3 mm 7 mps 744 mmHg 63%
    15:00 +10°C° 0.3 mm 8 mps 744 mmHg 64%
    16:00 +10°C° 0.2 mm 7 mps 744 mmHg 67%
    17:00 +9°C° 0.2 mm 6 mps 744 mmHg 69%
    18:00 +8°C° 0.2 mm 5 mps 744 mmHg 72%
    19:00 +8°C° 0.1 mm 5 mps 744 mmHg 74%
    20:00 +7°C° 0.1 mm 5 mps 744 mmHg 77%
    21:00 +6°C° 0.1 mm 5 mps 745 mmHg 79%
    22:00 +5°C° 0.1 mm 5 mps 745 mmHg 80%
    23:00 +5°C° 0.1 mm 5 mps 745 mmHg 81%

    26 April, Thursday

    Time Temperature Precipitation Wind Pressure Humidity
    00:00 +5°C° 0.1 mm 5 mps 745 mmHg 82%
    01:00 +5°C° 0 mm 5 mps 745 mmHg 83%
    02:00 +3°C° 0 mm 5 mps 745 mmHg 84%
    03:00 +3°C° 0 mm 5 mps 746 mmHg 85%
    04:00 +3°C° 0 mm 5 mps 746 mmHg 84%
    05:00 +3°C° 0 mm 5 mps 746 mmHg 83%
    06:00 +3°C° 0 mm 6 mps 746 mmHg 82%
    07:00 +4°C° 0.1 mm 6 mps 747 mmHg 78%
    08:00 +5°C° 0.1 mm 7 mps 747 mmHg 73%
    09:00 +6°C° 0.1 mm 8 mps 747 mmHg 68%
    10:00 +7°C° 0.3 mm 8 mps 747 mmHg 67%
    11:00 +7°C° 0.3 mm 8 mps 747 mmHg 65%
    12:00 +9°C° 0.3 mm 8 mps 747 mmHg 64%
    13:00 +9°C° 0.2 mm 8 mps 747 mmHg 63%
    14:00 +9°C° 0.2 mm 8 mps 747 mmHg 63%
    15:00 +9°C° 0.2 mm 8 mps 747 mmHg 62%
    16:00 +9°C° 0.1 mm 7 mps 747 mmHg 65%
    17:00 +8°C° 0.1 mm 6 mps 747 mmHg 68%
    18:00 +8°C° 0.1 mm 5 mps 747 mmHg 72%
    19:00 +7°C° 0 mm 5 mps 747 mmHg 75%
    20:00 +6°C° 0 mm 4 mps 748 mmHg 79%
    21:00 +4°C° 0 mm 4 mps 748 mmHg 83%
    22:00 +4°C° 0 mm 4 mps 748 mmHg 85%
    23:00 +4°C° 0 mm 3 mps 748 mmHg 87%

    27 April, Friday

    Time Temperature Precipitation Wind Pressure Humidity
    00:00 +3°C° 0 mm 3 mps 748 mmHg 89%
    01:00 +3°C° 0 mm 3 mps 748 mmHg 89%
    02:00 +3°C° 0 mm 3 mps 748 mmHg 89%
    03:00 +2°C° 0 mm 3 mps 748 mmHg 90%
    04:00 +2°C° 0 mm 3 mps 748 mmHg 89%
    05:00 +3°C° 0 mm 3 mps 748 mmHg 89%
    06:00 +3°C° 0 mm 3 mps 748 mmHg 88%
    07:00 +4°C° 0 mm 3 mps 748 mmHg 82%
    08:00 +6°C° 0 mm 4 mps 748 mmHg 75%
    09:00 +7°C° 0 mm 4 mps 749 mmHg 69%
    10:00 +8°C° 0.1 mm 4 mps 749 mmHg 65%
    11:00 +10°C° 0.1 mm 4 mps 748 mmHg 62%
    12:00 +11°C° 0.1 mm 4 mps 748 mmHg 58%
    13:00 +11°C° 0.1 mm 4 mps 748 mmHg 58%
    14:00 +11°C° 0.1 mm 4 mps 748 mmHg 58%
    15:00 +11°C° 0.1 mm 4 mps 748 mmHg 57%
    16:00 +10°C° 0 mm 4 mps 748 mmHg 60%
    17:00 +10°C° 0 mm 3 mps 748 mmHg 63%
    18:00 +9°C° 0 mm 3 mps 748 mmHg 66%
    19:00 +8°C° 0 mm 2 mps 748 mmHg 69%
    20:00 +6°C° 0 mm 2 mps 748 mmHg 71%
    21:00 +6°C° 0 mm 1 mps 748 mmHg 73%
    22:00 +4°C° 0 mm 2 mps 748 mmHg 76%
    23:00 +4°C° 0 mm 2 mps 748 mmHg 78%
    Show more